Regional Weather Roundup
Issued by NWS

Home | Current Version | Previous Version | Text Only | Print | Product List | Glossary On
Versions: 1 2 3 4 5 6 7 8 9 10 11 12 13 14 15 16 17 18 19 20 21 22 23 24 25 26 27
000
ASUS45 KSLC 230710
RWRUT

UTAH REGIONAL WEATHER ROUNDUP
NATIONAL WEATHER SERVICE SALT LAKE CITY UT
1200 AM MST THU FEB 23 2017

UTZ001>011-023>025-230800-

NORTHERN UTAH

CITY           SKY/WX    TMP DP  RH WIND       PRES   REMARKS
BRIGHAM CITY     N/A     34  26  72 SW3       29.75F
HILL AFB       PTCLDY    30  22  71 CALM      29.74F
LOGAN          CLOUDY    31  25  78 SW7       29.73F WCI  24
OGDEN          CLOUDY    30  26  85 S6        29.74F WCI  24
SALT LAKE CITY CLOUDY    31  29  92 S7        29.75F WCI  24
TOOELE VALLEY  MIX PCPN  30  30 100 SE10      29.76F WCI  21
WENDOVER       MOCLDY    32  16  51 W5        29.76F WCI  27
HEBER CITY     FLURRIES  25  21  86 SE3       29.70S
WEST JORDAN    CLOUDY    32  32 100 CALM      29.76F VSB 1/2

$$

UTZ011>015-024>027-230800-

CENTRAL/NORTHEAST UTAH

CITY           SKY/WX    TMP DP  RH WIND       PRES   REMARKS
PROVO AIRPORT  CLOUDY    27  26  96 CALM      29.76F
MOAB/CANYONLAN CLOUDY    44  30  57 W26G32    29.55R
DELTA          CLOUDY    28  27  93 S6        29.78F WCI  22
PRICE          CLOUDY    30  17  58 NW14      29.65R WCI  19
RICHFIELD      MOCLDY    28  27  93 CALM      29.82F
ROOSEVELT      LGT SNOW  30  28  93 W13       29.65F VSB 3/4 WCI  20
VERNAL         LGT SNOW  31  29  92 N8        29.61F FOG     WCI  23

$$

UTZ013>016-019>022-027-230800-

SOUTHERN UTAH

CITY           SKY/WX    TMP DP  RH WIND       PRES   REMARKS
BRYCE CANYON   LGT SNOW  21  17  84 NW12      29.72S FOG     WCI   9
CEDAR CITY     CLOUDY    26  22  84 NW5       29.77F WCI  20
MILFORD        CLOUDY    25  21  85 W10       29.79F WCI  15
ST GEORGE      CLOUDY    39  33  79 E8        29.84F WCI  33
HANKSVILLE     CLOUDY    37  12  35 NW22G32   29.66R WCI  27
KANAB          CLOUDY    36  25  64 NW18G26   29.80S WCI  25
BLANDING       PTCLDY    43  24  48 S17G29    29.71F

$$

REGIONAL REPORTS     COLORADO/ARIZONA

CITY           SKY/WX    TMP DP  RH WIND       PRES   REMARKS
CRAIG, CO      CLOUDY    29  25  85 E5        29.56F WCI  24
GRAND JUNCTION PTCLDY    51  18  27 SW14      29.51F
RIFLE, CO      CLEAR     51  16  24 SW18G35   29.51F
MONTROSE, CO   CLEAR     48  15  26 SW13      29.62S
CORTEZ, CO     CLEAR     41  20  43 SW13      29.71R
COLORADO CITY  FLURRIES  34  28  80 N16G22    29.82F WCI  23
PAGE, AZ       CLOUDY    47  19  33 W18G30    29.69R
GRAND CANYON   CLOUDY    33  21  61 SW12G22   29.77F WCI  24
KINGMAN, AZ    CLEAR     42  15  33 W7        29.86S
FLAGSTAFF, AZ  MOCLDY    36  28  73 SW26G32   29.80S WCI  24

$$

REGIONAL REPORTS    NEVADA/IDAHO/WYOMING

CITY           SKY/WX    TMP DP  RH WIND       PRES   REMARKS
LAS VEGAS, NV  CLOUDY    49  28  44 E6        29.84S
ELY, NY        PTCLDY     1  -3  83 S3        29.80S
ELKO, NV       FLURRIES  29  18  63 W18       29.80F WCI  16
POCATELLO, ID  LGT SNOW  29  28  96 SW8       29.71F VSB 3/4 WCI  21
BURLEY, ID     CLOUDY    31  25  78 W8        29.70F WCI  23
FORT BRIDGER,  LGT SNOW  24  24 100 W12       29.68F WCI  13
EVANSTON, WY   LGT SNOW  20  17  88 SW15      29.66S VSB 1   WCI   6
ROCK SPRINGS,  LGT SNOW  24  22  91 N7        29.62F FOG     WCI  16

$$




USA.gov is the U.S. government's official web portal to all federal, state and local government web resources and services.